Regional Weather Roundup
Issued by NWS

Home | Current Version | Previous Version | Graphics & Text | Print | Product List | Glossary On
Versions: 1 2 3 4 5 6 7 8 9 10 11 12 13 14 15 16 17 18 19 20 21 22 23 24 25 26 27 28 29 30 31 32 33 34 35 36 37 38 39 40 41 42 43 44 45 46 47 48 49 50
000
ASUS45 KCYS 011710
RWRWY

WYOMING REGIONAL WEATHER ROUNDUP
NATIONAL WEATHER SERVICE CHEYENNE WY
1100 AM MDT SAT AUG 01 2015

NOTE:  "FAIR" INDICATES FEW OR NO CLOUDS BELOW 12,000 FEET
WITH NO SIGNIFICANT WEATHER AND/OR OBSTRUCTIONS TO VISIBILITY.

WYZ001-011800-
YELLOWSTONE NATIONAL PARK

CITY           SKY/WX    TMP DP  RH WIND       PRES   REMARKS
LK YELLOWSTONE   N/A     62  40  44 VRB3      30.44F
W YELLOWSTONE  NOT AVBL

$$
WYZ002>013-054>058-071-098>099-011800-
NORTHERN WYOMING

CITY           SKY/WX    TMP DP  RH WIND       PRES   REMARKS
JACKSON        SUNNY     66  39  37 CALM      30.34F
CODY           FAIR      84  34  16 S5        30.17F
GREYBULL       FAIR      84  37  18 SE6       30.10F
WORLAND        FAIR      83  33  16 VRB5      30.13F
SHERIDAN       FAIR      89  30  12 VRB3      30.08F
BUFFALO        FAIR      88  30  12 N8        30.16F
GILLETTE       FAIR      87  37  17 N9        30.11S
HULETT         FAIR      82  46  28 N5        30.11S
NEWCASTLE      FAIR      84  45  24 W6        30.09F

$$
WYZ014>020-022>026-101>103-011800-
CENTRAL WYOMING

CITY           SKY/WX    TMP DP  RH WIND       PRES   REMARKS
BIG PINEY      FAIR      79  28  15 VRB7      30.34F
PINEDALE       FAIR      77  28  16 CALM      30.35S
DUBOIS         FAIR      77  21  12 NW8       30.34F
LANDER         FAIR      84  35  17 NE6       30.21F
RIVERTON       FAIR      84  32  15 N8        30.22F
CASPER         FAIR      83  38  20 N7        30.19F
DOUGLAS        FAIR      87  42  20 N9G17     30.15F

$$
WYZ021-027>030-104>119-011800-
SOUTHERN WYOMING

CITY           SKY/WX    TMP DP  RH WIND       PRES   REMARKS
EVANSTON       FAIR      76  32  20 NW5       30.35F
KEMMERER       FAIR     N/A N/A N/A N3        30.36S
FORT BRIDGER   SUNNY     77  28  16 NE7       30.37S
ROCK SPRINGS   FAIR      75  32  20 VRB3      30.32S
DIXON          FAIR      81  31  16 W10       30.31F
RAWLINS        FAIR      81  27  14 W7        30.30F
SARATOGA       FAIR      79  37  22 CALM      30.31F
LARAMIE        FAIR      78  38  23 W9        30.30F
CHEYENNE       FAIR      83  45  26 S14       30.22S
TORRINGTON     FAIR      83  58  42 W3        30.08S
PINE BLUFFS    FAIR      84  48  28 SW13G18   30.16F

$$


USA.gov is the U.S. government's official web portal to all federal, state and local government web resources and services.